Dewpoint
68 70 71 71 71 71 71 71 70 70 70 69 69 69 68 67 67 66 65 64 64 62 62 62 63 63 63 64 65 65 66 66 67 67 67 67 67 66 65 66 67 65 67
69 70 70 71 71 71 71 70 70 69 69 68 68 68 67 67 66 65 65 65 64 62 62 62 62 62 62 62 62 62 63 66 67 66 66 64 64 65 65 67 67 66 68
68 69 69 70 70 71 71 70 69 68 68 67 67 67 66 65 65 65 65 64 63 60 60 60 58 58 58 59 61 63 63 63 63 63 65 60 60 62 61 63 66 66 66
67 68 68 70 70 70 70 69 68 67 67 67 66 66 65 64 64 65 64 63 63 60 59 59 59 59 60 61 63 63 63 63 64 63 59 59 59 63 61 60 60 65 65
64 67 69 69 69 70 69 68 68 67 67 66 65 65 64 63 63 64 65 64 64 61 61 61 61 61 62 63 62 62 62 62 62 58 58 58 58 58 60 60 60 60 64
66 67 67 67 68 68 69 68 67 67 66 65 65 65 64 64 63 64 65 65 62 62 62 61 61 61 63 62 62 61 62 62 56 54 56 60 58 60 60 60 61 61 62
67 67 65 66 67 69 69 68 67 66 65 65 66 66 65 64 63 64 65 65 63 62 62 62 61 62 63 62 62 61 60 61 49 53 57 58 59 60 60 60 60 61 61
65 65 66 67 68 68 68 67 66 65 65 65 65 65 65 65 65 65 65 65 64 63 63 62 62 62 61 62 61 60 59 60 51 52 56 57 62 61 60 60 63 63 63
66 65 66 67 67 67 66 66 65 65 65 65 65 65 65 64 65 65 65 65 64 64 63 62 60 59 59 60 61 60 58 59 51 52 55 58 62 60 61 61 61 61 63
65 65 66 67 66 65 64 65 65 64 64 64 64 63 63 63 64 64 64 64 63 62 62 61 60 58 58 57 59 60 56 54 47 52 56 58 60 58 59 60 61 62 62
62 63 64 65 64 63 63 64 64 63 63 63 63 62 62 60 60 62 62 62 61 60 60 60 59 58 60 59 59 60 55 46 46 51 53 58 58 53 56 58 59 59 60
60 60 60 63 63 62 60 62 61 60 60 59 59 60 59 60 60 59 61 61 60 59 59 59 60 58 56 50 50 53 47 45 45 48 51 56 53 50 52 55 56 56 56
60 60 61 63 62 57 58 59 59 59 58 59 59 60 62 61 60 60 61 58 56 59 56 56 55 53 51 50 49 48 47 44 45 44 51 54 51 48 49 53 53 54 53
61 61 62 63 59 56 58 57 58 60 63 63 63 62 61 62 61 59 57 57 56 56 54 53 52 49 46 46 46 45 45 44 45 45 49 54 54 48 48 51 51 51 51
60 60 60 60 56 56 57 61 62 63 62 63 61 62 61 60 59 58 56 55 53 52 51 49 48 45 45 46 46 46 45 45 41 41 43 54 54 50 49 50 49 47 47
60 59 58 57 56 59 61 62 62 60 59 60 61 62 61 60 57 56 54 52 51 49 48 47 47 46 47 46 45 45 43 41 35 35 39 41 54 53 50 48 46 45 45
57 56 56 56 61 60 59 58 58 58 58 59 60 60 57 57 55 54 52 51 49 49 48 47 48 47 46 46 45 41 40 36 36 37 35 36 48 53 52 46 42 42 43
55 54 55 58 60 58 58 58 57 58 58 58 56 55 54 55 52 52 51 50 50 51 47 48 47 46 44 42 40 37 38 36 36 33 33 35 39 45 51 48 43 42 42
54 53 56 60 58 58 59 58 59 57 56 55 55 53 53 53 53 51 50 48 49 49 48 46 46 45 41 39 36 34 37 36 33 34 32 33 36 37 44 49 43 43 39
54 55 60 60 59 59 59 59 58 55 55 55 53 52 52 51 51 50 48 48 47 46 44 43 42 42 40 39 36 36 34 34 34 34 31 31 33 34 36 34 36 35 42
57 60 60 59 59 59 58 57 55 54 53 53 52 51 51 48 48 48 47 45 43 42 40 41 40 39 39 39 36 35 34 34 31 30 31 31 32 31 31 31 32 33 33
58 59 60 59 58 59 58 58 55 53 52 51 49 49 48 47 47 45 44 42 42 41 41 41 39 39 38 37 33 35 31 32 32 29 30 30 30 30 30 27 30 30 31
59 59 59 59 58 59 59 57 55 52 49 48 47 47 46 45 44 44 43 42 42 42 41 40 40 37 35 36 36 34 31 29 29 28 27 29 28 28 28 29 29 28 29
59 59 59 59 58 59 59 56 51 47 45 47 48 46 44 44 42 39 41 42 42 42 40 41 40 38 36 35 36 35 34 33 27 26 27 27 27 26 27 28 29 28 28
59 59 60 60 59 59 59 54 50 48 46 47 46 45 45 44 42 38 38 36 36 38 37 37 38 39 38 36 35 35 33 32 29 26 25 25 27 27 27 27 27 28 28
58 59 59 59 59 57 51 51 48 46 42 40 39 39 41 39 38 36 35 35 35 35 36 37 37 39 37 36 37 37 34 32 29 27 26 26 26 27 27 27 27 28 29
Lifted_Index
-3 -4 -4 -4 -4 -4 -4 -4 -4 -4 -3 -2 -2 -1 -1 -0 0 0 1 1 1 1 2 2 1 1 1 1 1 1 1 0 -1 -1 -1 -1 -1 -1 -1 -2 -2 -2 -3
-3 -3 -3 -4 -4 -4 -4 -4 -4 -3 -3 -2 -1 -1 -0 -0 0 1 1 1 1 2 2 2 2 2 2 2 2 2 2 1 0 -1 -1 -0 -0 -0 -0 -1 -2 -2 -2
-3 -3 -3 -3 -4 -4 -4 -4 -4 -3 -2 -2 -1 -0 0 0 0 1 1 1 2 2 3 3 3 3 3 3 3 3 3 2 1 0 -0 0 1 1 1 1 -1 -2 -2
-2 -3 -3 -3 -4 -4 -4 -3 -3 -2 -2 -1 -1 0 0 0 1 1 1 1 2 3 3 3 3 3 3 3 3 3 3 2 2 1 1 1 1 1 2 2 1 -0 -1
-2 -2 -3 -3 -3 -3 -3 -2 -2 -2 -1 -1 -1 -0 0 0 1 1 1 1 2 2 3 3 3 3 3 3 4 4 3 3 3 3 3 2 2 2 3 3 3 2 1
-2 -2 -2 -2 -2 -2 -2 -2 -1 -1 -1 -1 -1 -1 -0 0 1 1 1 1 1 2 2 2 2 3 3 4 4 4 4 4 4 4 3 3 3 3 3 3 3 2 2
-1 -1 -1 -1 -1 -2 -2 -1 -1 -1 -1 -2 -2 -1 -0 0 1 1 1 1 1 1 2 2 2 3 3 3 4 4 5 5 5 4 4 3 2 2 2 2 2 2 2
-0 0 0 -0 -1 -1 -2 -1 -1 -1 -1 -2 -2 -1 -0 0 1 1 1 1 1 1 1 2 3 3 3 3 3 4 5 5 5 4 4 2 2 2 2 2 1 1 1
0 1 0 -0 -1 -1 -1 -1 -1 -1 -1 -2 -1 -0 1 1 1 1 1 1 1 1 2 2 3 3 4 4 4 4 5 5 5 5 4 3 2 2 1 1 1 0 0
1 1 1 0 -0 -1 -1 -1 -1 -1 -1 -1 0 1 1 1 1 1 1 2 2 2 2 2 3 3 3 4 4 4 5 6 6 5 5 3 3 3 2 1 1 1 0
2 2 1 -0 -1 -1 -1 -1 -1 -0 0 1 1 1 1 1 1 1 2 2 2 2 2 2 3 3 3 4 4 5 5 6 7 6 6 5 4 4 3 2 2 1 1
3 2 1 -0 -1 -1 -1 -0 0 1 1 1 0 -0 -0 -0 0 1 2 2 2 2 2 2 2 3 4 4 4 5 5 6 7 7 6 6 6 5 4 3 3 3 3
2 1 0 -1 -1 -0 0 1 1 1 1 0 -1 -1 -1 -1 -0 0 1 2 2 2 2 2 2 3 3 4 4 5 5 6 6 7 6 6 6 6 5 4 4 4 4
-1 -1 -2 -1 -0 1 1 1 -0 -1 -1 -1 -2 -2 -2 -1 -0 0 1 2 2 2 2 2 2 3 3 4 5 5 6 6 6 7 6 6 6 6 5 5 5 5 6
-2 -2 -2 -1 -0 1 0 -0 -1 -2 -2 -2 -2 -2 -1 -1 0 1 1 2 2 2 2 2 2 3 4 5 5 6 6 6 6 7 7 7 6 6 5 5 6 6 7
-2 -2 -2 -1 -0 -0 -1 -1 -2 -2 -2 -1 -1 -1 -0 0 1 1 2 2 2 3 2 2 3 3 4 5 5 6 7 7 7 8 8 8 7 6 6 6 7 8 8
-2 -1 -1 -1 -1 -1 -1 -2 -1 -1 -1 -1 0 1 1 1 2 2 2 2 3 3 3 3 3 4 5 5 6 7 8 8 8 9 9 9 8 6 6 7 8 9 9
-2 -1 -1 -1 -2 -2 -1 -1 -1 -0 0 1 1 2 2 2 2 2 3 3 4 4 4 4 4 5 6 7 8 9 9 9 9 9 10 9 8 7 7 8 9 10 10
-1 -1 -1 -2 -2 -2 -1 -0 0 1 1 2 2 2 2 3 3 3 4 4 5 5 5 5 6 6 7 8 9 10 10 10 10 10 9 9 9 9 8 9 10 11 11
-1 -1 -2 -2 -2 -1 -1 0 1 1 2 2 2 2 3 4 4 4 5 5 5 6 6 7 8 8 9 9 10 10 10 10 10 10 10 10 10 10 11 11 12 12 12
-2 -2 -2 -2 -2 -1 -0 0 1 1 2 2 3 3 4 5 5 6 6 6 6 7 8 9 9 10 10 10 10 10 10 10 10 11 11 11 11 12 12 12 12 12 12
-2 -2 -3 -3 -2 -1 -0 0 0 1 2 2 3 4 5 6 6 6 7 7 7 8 9 10 10 10 10 10 10 11 11 11 11 11 11 12 12 12 12 12 12 12 13
-3 -3 -3 -3 -2 -1 -1 -0 0 2 2 3 4 5 5 6 7 7 8 8 9 9 9 9 10 10 10 10 10 11 11 11 11 12 12 12 12 12 12 12 12 12 12
-3 -3 -3 -2 -2 -1 -1 -0 1 2 3 4 4 5 6 7 8 8 8 9 9 9 9 10 10 10 10 10 10 10 10 11 11 12 12 12 12 12 12 12 12 12 12
-4 -3 -3 -2 -2 -1 -1 0 1 2 3 4 4 5 6 7 8 8 9 9 9 10 10 11 11 11 10 10 10 10 10 11 11 12 12 12 12 12 12 12 11 10 10
-3 -3 -2 -2 -2 -1 -1 0 1 2 3 4 4 5 6 8 9 9 9 9 10 10 11 12 11 11 10 10 10 10 10 11 11 11 11 11 11 12 12 11 10 9 8